contact:dominique.lefevre@mio.osupytheas.fr, maurice.libes@osupytheas.fr, didier.mallarino@osupytheas.fr
Project:EMSO http://www.emso-fr.org/EMSO-France
Depth: 2436.0 m
Title:EMSO Ligure Ouest : Data MII capteur MICROCAT
DateTime_Computer,Latitude,Longitude,Temperature,Conductivity,Pressure,DateTime_Instrument
DateTime_Computer,Latitude,Longitude,degC,S m-1,dbar,DateTime_Instrument
2017-10-12T00:00:32Z,42.805,6.029,13.3006,4.59977,2472.069,2017-10-12T02:01:57Z
2017-10-12T00:02:07Z,42.805,6.029,13.3007,4.59978,2472.069,2017-10-12T02:03:32Z
2017-10-12T00:03:42Z,42.805,6.029,13.3002,4.59978,2472.092,2017-10-12T02:05:06Z
2017-10-12T00:05:17Z,42.805,6.029,13.2999,4.59973,2472.069,2017-10-12T02:06:41Z
2017-10-12T00:06:52Z,42.805,6.029,13.3002,4.59974,2472.077,2017-10-12T02:08:16Z
2017-10-12T00:08:27Z,42.805,6.029,13.2999,4.59980,2472.069,2017-10-12T02:09:51Z
2017-10-12T00:10:01Z,42.805,6.029,13.2996,4.59986,2472.092,2017-10-12T02:11:26Z
2017-10-12T00:11:36Z,42.805,6.029,13.3004,4.59981,2472.069,2017-10-12T02:13:01Z
2017-10-12T00:13:11Z,42.805,6.029,13.3017,4.59986,2472.092,2017-10-12T02:14:35Z
2017-10-12T00:14:46Z,42.805,6.029,13.3019,4.60003,2472.092,2017-10-12T02:16:10Z
2017-10-12T00:16:21Z,42.805,6.029,13.3006,4.60009,2472.092,2017-10-12T02:17:45Z
2017-10-12T00:17:56Z,42.805,6.029,13.3015,4.60018,2472.084,2017-10-12T02:19:20Z
2017-10-12T00:19:30Z,42.805,6.029,13.3009,4.60010,2472.069,2017-10-12T02:20:55Z
2017-10-12T00:21:05Z,42.805,6.029,13.3021,4.60009,2472.047,2017-10-12T02:22:30Z
2017-10-12T00:22:40Z,42.805,6.029,13.3021,4.60009,2472.069,2017-10-12T02:24:04Z
2017-10-12T00:24:15Z,42.805,6.029,13.3017,4.60005,2472.069,2017-10-12T02:25:39Z
2017-10-12T00:25:50Z,42.805,6.029,13.3010,4.60026,2472.069,2017-10-12T02:27:14Z
2017-10-12T00:27:25Z,42.805,6.029,13.3010,4.60012,2472.115,2017-10-12T02:28:49Z
2017-10-12T00:28:59Z,42.805,6.029,13.3009,4.60023,2472.069,2017-10-12T02:30:24Z
2017-10-12T00:30:34Z,42.805,6.029,13.3011,4.60035,2472.092,2017-10-12T02:31:59Z
2017-10-12T00:32:09Z,42.805,6.029,13.3027,4.60050,2472.069,2017-10-12T02:33:33Z
2017-10-12T00:33:44Z,42.805,6.029,13.3015,4.60029,2472.069,2017-10-12T02:35:08Z
2017-10-12T00:35:19Z,42.805,6.029,13.3002,4.60012,2472.069,2017-10-12T02:36:43Z
2017-10-12T00:36:54Z,42.805,6.029,13.3002,4.60022,2472.069,2017-10-12T02:38:18Z
2017-10-12T00:38:28Z,42.805,6.029,13.3008,4.60035,2472.032,2017-10-12T02:39:53Z
2017-10-12T00:40:03Z,42.805,6.029,13.3019,4.60026,2472.107,2017-10-12T02:41:28Z
2017-10-12T00:41:38Z,42.805,6.029,13.3023,4.60018,2472.055,2017-10-12T02:43:03Z
2017-10-12T00:43:13Z,42.805,6.029,13.3024,4.60009,2472.092,2017-10-12T02:44:37Z
2017-10-12T00:44:48Z,42.805,6.029,13.3023,4.60003,2472.055,2017-10-12T02:46:12Z
2017-10-12T00:46:23Z,42.805,6.029,13.3021,4.59995,2472.069,2017-10-12T02:47:47Z
2017-10-12T00:47:58Z,42.805,6.029,13.3019,4.59995,2472.092,2017-10-12T02:49:22Z
2017-10-12T00:49:32Z,42.805,6.029,13.3015,4.60000,2472.092,2017-10-12T02:50:57Z
2017-10-12T00:51:07Z,42.805,6.029,13.3018,4.60007,2472.069,2017-10-12T02:52:32Z
2017-10-12T00:52:42Z,42.805,6.029,13.3019,4.60026,2472.047,2017-10-12T02:54:06Z
2017-10-12T00:54:17Z,42.805,6.029,13.3015,4.60026,2472.069,2017-10-12T02:55:41Z
2017-10-12T00:55:52Z,42.805,6.029,13.3019,4.60027,2472.084,2017-10-12T02:57:16Z
2017-10-12T00:57:27Z,42.805,6.029,13.3011,4.60027,2472.032,2017-10-12T02:58:51Z
2017-10-12T00:59:01Z,42.805,6.029,13.3018,4.60026,2472.069,2017-10-12T03:00:26Z
2017-10-12T01:00:36Z,42.805,6.029,13.3011,4.60029,2472.092,2017-10-12T03:02:01Z
2017-10-12T01:02:11Z,42.805,6.029,13.3009,4.60029,2472.069,2017-10-12T03:03:35Z
2017-10-12T01:03:46Z,42.805,6.029,13.3016,4.60036,2472.055,2017-10-12T03:05:10Z
2017-10-12T01:05:21Z,42.805,6.029,13.3019,4.60036,2472.047,2017-10-12T03:06:45Z
2017-10-12T01:06:56Z,42.805,6.029,13.3011,4.60015,2472.069,2017-10-12T03:08:20Z
2017-10-12T01:08:30Z,42.805,6.029,13.3019,4.60030,2472.032,2017-10-12T03:09:55Z
2017-10-12T01:10:05Z,42.805,6.029,13.3026,4.60028,2472.069,2017-10-12T03:11:30Z
2017-10-12T01:11:40Z,42.805,6.029,13.3023,4.60019,2472.069,2017-10-12T03:13:04Z
2017-10-12T01:13:15Z,42.805,6.029,13.3025,4.60009,2472.069,2017-10-12T03:14:39Z
2017-10-12T01:14:50Z,42.805,6.029,13.3030,4.60029,2472.047,2017-10-12T03:16:14Z
2017-10-12T01:16:25Z,42.805,6.029,13.3026,4.60040,2472.069,2017-10-12T03:17:49Z
2017-10-12T01:17:59Z,42.805,6.029,13.3032,4.60044,2472.069,2017-10-12T03:19:24Z
2017-10-12T01:19:34Z,42.805,6.029,13.3031,4.60021,2472.047,2017-10-12T03:20:59Z
2017-10-12T01:21:09Z,42.805,6.029,13.3034,4.60017,2472.069,2017-10-12T03:22:33Z
2017-10-12T01:22:44Z,42.805,6.029,13.3026,4.60007,2472.032,2017-10-12T03:24:08Z
2017-10-12T01:24:19Z,42.805,6.029,13.3041,4.60025,2472.084,2017-10-12T03:25:43Z
2017-10-12T01:25:54Z,42.805,6.029,13.3033,4.60009,2472.055,2017-10-12T03:27:18Z
2017-10-12T01:27:28Z,42.805,6.029,13.3040,4.60003,2472.047,2017-10-12T03:28:53Z
2017-10-12T01:29:03Z,42.805,6.029,13.3047,4.60018,2472.047,2017-10-12T03:30:28Z
2017-10-12T01:30:38Z,42.805,6.029,13.3049,4.60037,2472.069,2017-10-12T03:32:02Z
2017-10-12T01:32:13Z,42.805,6.029,13.3052,4.60044,2472.047,2017-10-12T03:33:37Z
2017-10-12T01:33:48Z,42.805,6.029,13.3047,4.60015,2472.032,2017-10-12T03:35:12Z
2017-10-12T01:35:23Z,42.805,6.029,13.3039,4.60009,2472.092,2017-10-12T03:36:47Z
2017-10-12T01:36:57Z,42.805,6.029,13.3038,4.60021,2472.047,2017-10-12T03:38:22Z
2017-10-12T01:38:32Z,42.805,6.029,13.3032,4.60013,2472.024,2017-10-12T03:39:57Z
2017-10-12T01:40:07Z,42.805,6.029,13.3034,4.60026,2472.024,2017-10-12T03:41:31Z
2017-10-12T01:41:42Z,42.805,6.029,13.3029,4.60012,2472.069,2017-10-12T03:43:06Z
2017-10-12T01:43:17Z,42.805,6.029,13.3029,4.60018,2472.047,2017-10-12T03:44:41Z
2017-10-12T01:44:52Z,42.805,6.029,13.3026,4.60031,2472.062,2017-10-12T03:46:16Z
2017-10-12T01:46:26Z,42.805,6.029,13.3016,4.60026,2472.032,2017-10-12T03:47:51Z
2017-10-12T01:48:01Z,42.805,6.029,13.3021,4.60026,2472.024,2017-10-12T03:49:26Z
2017-10-12T01:49:36Z,42.805,6.029,13.3026,4.60015,2472.024,2017-10-12T03:51:00Z
2017-10-12T01:51:11Z,42.805,6.029,13.3022,4.60010,2472.047,2017-10-12T03:52:35Z
2017-10-12T01:52:46Z,42.805,6.029,13.3020,4.60001,2472.047,2017-10-12T03:54:10Z
2017-10-12T01:54:21Z,42.805,6.029,13.3020,4.60009,2472.047,2017-10-12T03:55:45Z
2017-10-12T01:55:55Z,42.805,6.029,13.3011,4.60009,2472.062,2017-10-12T03:57:20Z
2017-10-12T01:57:30Z,42.805,6.029,13.3011,4.60006,2472.024,2017-10-12T03:58:55Z
2017-10-12T01:59:05Z,42.805,6.029,13.3011,4.60001,2472.024,2017-10-12T04:00:29Z
2017-10-12T02:00:40Z,42.805,6.029,13.3011,4.59996,2472.047,2017-10-12T04:02:04Z
2017-10-12T02:02:15Z,42.805,6.029,13.3011,4.59992,2472.047,2017-10-12T04:03:39Z
2017-10-12T02:03:50Z,42.805,6.029,13.3008,4.60007,2472.047,2017-10-12T04:05:14Z
2017-10-12T02:05:24Z,42.805,6.029,13.3000,4.60007,2472.047,2017-10-12T04:06:49Z
2017-10-12T02:06:59Z,42.805,6.029,13.3011,4.59997,2472.01,2017-10-12T04:08:24Z
2017-10-12T02:08:34Z,42.805,6.029,13.3014,4.60000,2472.047,2017-10-12T04:09:58Z
2017-10-12T02:10:09Z,42.805,6.029,13.3016,4.59992,2472.047,2017-10-12T04:11:33Z
2017-10-12T02:11:44Z,42.805,6.029,13.3010,4.59997,2472.024,2017-10-12T04:13:08Z
2017-10-12T02:13:19Z,42.805,6.029,13.2966,4.59997,2472.047,2017-10-12T04:14:43Z
2017-10-12T02:14:53Z,42.805,6.029,13.2933,4.60026,2472.024,2017-10-12T04:16:18Z
2017-10-12T02:16:28Z,42.805,6.029,13.2932,4.60008,2472.047,2017-10-12T04:17:53Z
2017-10-12T02:18:03Z,42.805,6.029,13.2937,4.59995,2472.047,2017-10-12T04:19:27Z
2017-10-12T02:19:38Z,42.805,6.029,13.2932,4.59990,2472.024,2017-10-12T04:21:02Z
2017-10-12T02:21:13Z,42.805,6.029,13.2936,4.59989,2472.047,2017-10-12T04:22:37Z
2017-10-12T02:22:48Z,42.805,6.029,13.2935,4.59987,2472.047,2017-10-12T04:24:12Z
2017-10-12T02:24:22Z,42.805,6.029,13.2933,4.59990,2472.024,2017-10-12T04:25:47Z
2017-10-12T02:25:57Z,42.805,6.029,13.2934,4.59989,2472.024,2017-10-12T04:27:22Z
2017-10-12T02:27:32Z,42.805,6.029,13.2930,4.59990,2472.047,2017-10-12T04:28:57Z
2017-10-12T02:29:07Z,42.805,6.029,13.2935,4.59992,2472.01,2017-10-12T04:30:31Z
2017-10-12T02:30:42Z,42.805,6.029,13.2930,4.59998,2472.047,2017-10-12T04:32:06Z
2017-10-12T02:32:17Z,42.805,6.029,13.2933,4.59978,2472.01,2017-10-12T04:33:41Z
2017-10-12T02:33:52Z,42.805,6.029,13.2933,4.59972,2472.047,2017-10-12T04:35:16Z
2017-10-12T02:35:26Z,42.805,6.029,13.2932,4.59969,2472.024,2017-10-12T04:36:51Z
2017-10-12T02:37:01Z,42.805,6.029,13.2935,4.59968,2472.01,2017-10-12T04:38:26Z
2017-10-12T02:38:36Z,42.805,6.029,13.2930,4.59974,2472.047,2017-10-12T04:40:00Z
2017-10-12T02:40:11Z,42.805,6.029,13.2938,4.59972,2472.047,2017-10-12T04:41:35Z
2017-10-12T02:41:46Z,42.805,6.029,13.2937,4.59969,2472.047,2017-10-12T04:43:10Z
2017-10-12T02:43:21Z,42.805,6.029,13.2934,4.59967,2472.032,2017-10-12T04:44:45Z
2017-10-12T02:44:55Z,42.805,6.029,13.2936,4.59975,2472.032,2017-10-12T04:46:20Z
2017-10-12T02:46:30Z,42.805,6.029,13.2933,4.59976,2472.024,2017-10-12T04:47:55Z
2017-10-12T02:48:05Z,42.805,6.029,13.2933,4.59982,2472.024,2017-10-12T04:49:29Z
2017-10-12T02:49:40Z,42.805,6.029,13.2928,4.59978,2472.032,2017-10-12T04:51:04Z
2017-10-12T02:51:15Z,42.805,6.029,13.2932,4.59972,2472.055,2017-10-12T04:52:39Z
2017-10-12T02:52:50Z,42.805,6.029,13.2929,4.59970,2471.987,2017-10-12T04:54:14Z
2017-10-12T02:54:24Z,42.805,6.029,13.2932,4.59967,2472.024,2017-10-12T04:55:49Z
2017-10-12T02:55:59Z,42.805,6.029,13.2933,4.59966,2472.024,2017-10-12T04:57:24Z
2017-10-12T02:57:34Z,42.805,6.029,13.2927,4.59967,2472.047,2017-10-12T04:58:58Z
2017-10-12T02:59:09Z,42.805,6.029,13.2932,4.59964,2472.032,2017-10-12T05:00:33Z
2017-10-12T03:00:44Z,42.805,6.029,13.2938,4.59974,2472.01,2017-10-12T05:02:08Z
2017-10-12T03:02:19Z,42.805,6.029,13.2932,4.59969,2472.01,2017-10-12T05:03:43Z
2017-10-12T03:03:53Z,42.805,6.029,13.2933,4.59968,2472.01,2017-10-12T05:05:18Z
2017-10-12T03:05:28Z,42.805,6.029,13.2931,4.59967,2472.01,2017-10-12T05:06:53Z
2017-10-12T03:07:03Z,42.805,6.029,13.2936,4.59968,2472.024,2017-10-12T05:08:27Z
2017-10-12T03:08:38Z,42.805,6.029,13.2932,4.59973,2472.01,2017-10-12T05:10:02Z
2017-10-12T03:10:13Z,42.805,6.029,13.2936,4.59972,2472.047,2017-10-12T05:11:37Z
2017-10-12T03:11:48Z,42.805,6.029,13.2935,4.59971,2472.032,2017-10-12T05:13:12Z
2017-10-12T03:13:22Z,42.805,6.029,13.2929,4.59970,2472.032,2017-10-12T05:14:47Z
2017-10-12T03:14:57Z,42.805,6.029,13.2934,4.59970,2472.039,2017-10-12T05:16:22Z
2017-10-12T03:16:32Z,42.805,6.029,13.2932,4.59968,2472.032,2017-10-12T05:17:56Z
2017-10-12T03:18:07Z,42.805,6.029,13.2933,4.59967,2472.024,2017-10-12T05:19:31Z
2017-10-12T03:19:42Z,42.805,6.029,13.2933,4.59968,2472.024,2017-10-12T05:21:06Z
2017-10-12T03:21:17Z,42.805,6.029,13.2935,4.59969,2472.01,2017-10-12T05:22:41Z
2017-10-12T03:22:51Z,42.805,6.029,13.2932,4.59975,2472.01,2017-10-12T05:24:16Z
2017-10-12T03:24:26Z,42.805,6.029,13.2934,4.59975,2472.024,2017-10-12T05:25:51Z
2017-10-12T03:26:01Z,42.805,6.029,13.2934,4.59972,2472.01,2017-10-12T05:27:25Z
2017-10-12T03:27:36Z,42.805,6.029,13.2931,4.59973,2472.024,2017-10-12T05:29:00Z
2017-10-12T03:29:11Z,42.805,6.029,13.2931,4.59977,2472.024,2017-10-12T05:30:35Z
2017-10-12T03:30:46Z,42.805,6.029,13.2928,4.59968,2472.01,2017-10-12T05:32:10Z
2017-10-12T03:32:20Z,42.805,6.029,13.2935,4.59968,2472.024,2017-10-12T05:33:45Z
2017-10-12T03:33:55Z,42.805,6.029,13.2933,4.59965,2472.024,2017-10-12T05:35:20Z
2017-10-12T03:35:30Z,42.805,6.029,13.2933,4.59965,2472.01,2017-10-12T05:36:54Z
2017-10-12T03:37:05Z,42.805,6.029,13.2930,4.59965,2472.01,2017-10-12T05:38:29Z
2017-10-12T03:38:40Z,42.805,6.029,13.2933,4.59971,2472.024,2017-10-12T05:40:04Z
2017-10-12T03:40:15Z,42.805,6.029,13.2936,4.59967,2472.002,2017-10-12T05:41:39Z
2017-10-12T03:41:49Z,42.805,6.029,13.2933,4.59973,2472.002,2017-10-12T05:43:14Z
2017-10-12T03:43:24Z,42.805,6.029,13.2936,4.59970,2472.002,2017-10-12T05:44:49Z
2017-10-12T03:44:59Z,42.805,6.029,13.2935,4.59970,2472.047,2017-10-12T05:46:23Z
2017-10-12T03:46:34Z,42.805,6.029,13.2930,4.59967,2472.047,2017-10-12T05:47:58Z
2017-10-12T03:48:09Z,42.805,6.029,13.2933,4.59967,2472.024,2017-10-12T05:49:33Z
2017-10-12T03:49:44Z,42.805,6.029,13.2933,4.59966,2472.01,2017-10-12T05:51:08Z
2017-10-12T03:51:18Z,42.805,6.029,13.2932,4.59964,2472.024,2017-10-12T05:52:43Z
2017-10-12T03:52:53Z,42.805,6.029,13.2933,4.59971,2472.024,2017-10-12T05:54:18Z
2017-10-12T03:54:28Z,42.805,6.029,13.2930,4.59974,2472.024,2017-10-12T05:55:53Z
2017-10-12T03:56:03Z,42.805,6.029,13.2933,4.59982,2472.024,2017-10-12T05:57:27Z
2017-10-12T03:57:38Z,42.805,6.029,13.2929,4.59992,2472.002,2017-10-12T05:59:02Z
2017-10-12T03:59:13Z,42.805,6.029,13.2935,4.59987,2472.002,2017-10-12T06:00:37Z
2017-10-12T04:00:47Z,42.805,6.029,13.2928,4.60003,2472.024,2017-10-12T06:02:12Z
2017-10-12T04:02:22Z,42.805,6.029,13.2935,4.59992,2472.002,2017-10-12T06:03:47Z
2017-10-12T04:03:57Z,42.805,6.029,13.2935,4.59988,2471.987,2017-10-12T06:05:22Z
2017-10-12T04:05:32Z,42.805,6.029,13.2933,4.59985,2471.979,2017-10-12T06:06:56Z
2017-10-12T04:07:07Z,42.805,6.029,13.2929,4.59982,2471.987,2017-10-12T06:08:31Z
2017-10-12T04:08:42Z,42.805,6.029,13.2936,4.59988,2472.002,2017-10-12T06:10:06Z
2017-10-12T04:10:16Z,42.805,6.029,13.2932,4.59995,2472.024,2017-10-12T06:11:41Z
2017-10-12T04:11:51Z,42.805,6.029,13.2934,4.60018,2472.047,2017-10-12T06:13:16Z
2017-10-12T04:13:26Z,42.805,6.029,13.2933,4.60038,2472.002,2017-10-12T06:14:51Z
2017-10-12T04:15:01Z,42.805,6.029,13.2937,4.59998,2472.002,2017-10-12T06:16:25Z
2017-10-12T04:16:36Z,42.805,6.029,13.2946,4.60024,2472.002,2017-10-12T06:18:00Z
2017-10-12T04:18:11Z,42.805,6.029,13.2935,4.60039,2472.024,2017-10-12T06:19:35Z
2017-10-12T04:19:46Z,42.805,6.029,13.2937,4.60006,2471.979,2017-10-12T06:21:10Z
2017-10-12T04:21:20Z,42.805,6.029,13.2932,4.60008,2471.964,2017-10-12T06:22:45Z
2017-10-12T04:22:55Z,42.805,6.029,13.2935,4.60013,2472.002,2017-10-12T06:24:20Z
2017-10-12T04:24:30Z,42.805,6.029,13.2931,4.59979,2472.002,2017-10-12T06:25:54Z
2017-10-12T04:26:05Z,42.805,6.029,13.2932,4.59977,2472.01,2017-10-12T06:27:29Z
2017-10-12T04:27:40Z,42.805,6.029,13.2933,4.59975,2472.002,2017-10-12T06:29:04Z
2017-10-12T04:29:15Z,42.805,6.029,13.2933,4.59973,2471.979,2017-10-12T06:30:39Z
2017-10-12T04:30:49Z,42.805,6.029,13.2934,4.59992,2472.002,2017-10-12T06:32:14Z
2017-10-12T04:32:24Z,42.805,6.029,13.2935,4.59981,2472.024,2017-10-12T06:33:49Z
2017-10-12T04:33:59Z,42.805,6.029,13.2933,4.60008,2472.002,2017-10-12T06:35:23Z
2017-10-12T04:35:34Z,42.805,6.029,13.2932,4.60026,2472.002,2017-10-12T06:36:58Z
2017-10-12T04:37:09Z,42.805,6.029,13.2932,4.60004,2472.01,2017-10-12T06:38:33Z
2017-10-12T04:38:44Z,42.805,6.029,13.2933,4.60025,2472.024,2017-10-12T06:40:08Z
2017-10-12T04:40:18Z,42.805,6.029,13.2932,4.60033,2472.024,2017-10-12T06:41:43Z
2017-10-12T04:41:53Z,42.805,6.029,13.2933,4.59981,2472.002,2017-10-12T06:43:18Z
2017-10-12T04:43:28Z,42.805,6.029,13.2933,4.59985,2472.002,2017-10-12T06:44:52Z
2017-10-12T04:45:03Z,42.805,6.029,13.2935,4.59975,2471.964,2017-10-12T06:46:27Z
2017-10-12T04:46:38Z,42.805,6.029,13.2932,4.59981,2471.979,2017-10-12T06:48:02Z
2017-10-12T04:48:13Z,42.805,6.029,13.2935,4.59975,2472.002,2017-10-12T06:49:37Z
2017-10-12T04:49:47Z,42.805,6.029,13.2938,4.59981,2471.979,2017-10-12T06:51:12Z
2017-10-12T04:51:22Z,42.805,6.029,13.2933,4.59983,2472.002,2017-10-12T06:52:47Z
2017-10-12T04:52:57Z,42.805,6.029,13.2932,4.60012,2472.024,2017-10-12T06:54:21Z
2017-10-12T04:54:32Z,42.805,6.029,13.2933,4.59968,2472.024,2017-10-12T06:55:56Z
2017-10-12T04:56:07Z,42.805,6.029,13.2931,4.59965,2472.002,2017-10-12T06:57:31Z
2017-10-12T04:57:42Z,42.805,6.029,13.2938,4.59974,2472.002,2017-10-12T06:59:06Z
2017-10-12T04:59:16Z,42.805,6.029,13.2933,4.59977,2471.979,2017-10-12T07:00:41Z
2017-10-12T05:00:51Z,42.805,6.029,13.2930,4.59974,2471.987,2017-10-12T07:02:16Z
2017-10-12T05:02:26Z,42.805,6.029,13.2937,4.59979,2471.964,2017-10-12T07:03:50Z
2017-10-12T05:04:01Z,42.805,6.029,13.2933,4.59997,2471.979,2017-10-12T07:05:25Z
2017-10-12T05:05:36Z,42.805,6.029,13.2929,4.60023,2471.979,2017-10-12T07:07:00Z
2017-10-12T05:07:11Z,42.805,6.029,13.2934,4.59987,2472.01,2017-10-12T07:08:35Z
2017-10-12T05:08:45Z,42.805,6.029,13.2940,4.59987,2471.964,2017-10-12T07:10:10Z
2017-10-12T05:10:20Z,42.805,6.029,13.2946,4.60003,2472.002,2017-10-12T07:11:45Z
2017-10-12T05:11:55Z,42.805,6.029,13.2980,4.60023,2471.964,2017-10-12T07:13:19Z
2017-10-12T05:13:30Z,42.805,6.029,13.2990,4.60031,2471.987,2017-10-12T07:14:54Z
2017-10-12T05:15:05Z,42.805,6.029,13.2965,4.60006,2471.979,2017-10-12T07:16:29Z
2017-10-12T05:16:40Z,42.805,6.029,13.2950,4.60040,2471.979,2017-10-12T07:18:04Z
2017-10-12T05:18:14Z,42.805,6.029,13.2944,4.60008,2471.979,2017-10-12T07:19:39Z
2017-10-12T05:19:49Z,42.805,6.029,13.2950,4.59998,2471.964,2017-10-12T07:21:14Z
2017-10-12T05:21:24Z,42.805,6.029,13.2982,4.60005,2471.979,2017-10-12T07:22:48Z
2017-10-12T05:22:59Z,42.805,6.029,13.2993,4.59997,2471.964,2017-10-12T07:24:23Z
2017-10-12T05:24:34Z,42.805,6.029,13.2940,4.59992,2471.979,2017-10-12T07:25:58Z
2017-10-12T05:26:09Z,42.805,6.029,13.2945,4.60021,2471.979,2017-10-12T07:27:33Z
2017-10-12T05:27:43Z,42.805,6.029,13.2937,4.59995,2471.964,2017-10-12T07:29:08Z
2017-10-12T05:29:18Z,42.805,6.029,13.2943,4.60029,2472.002,2017-10-12T07:30:43Z
2017-10-12T05:30:53Z,42.805,6.029,13.2957,4.60052,2471.964,2017-10-12T07:32:17Z
2017-10-12T05:32:28Z,42.805,6.029,13.2937,4.59999,2471.979,2017-10-12T07:33:52Z
2017-10-12T05:34:03Z,42.805,6.029,13.2936,4.60023,2471.957,2017-10-12T07:35:27Z
2017-10-12T05:35:38Z,42.805,6.029,13.2975,4.60029,2471.979,2017-10-12T07:37:02Z
2017-10-12T05:37:12Z,42.805,6.029,13.3016,4.60037,2471.979,2017-10-12T07:38:37Z
2017-10-12T05:38:47Z,42.805,6.029,13.3021,4.59993,2471.964,2017-10-12T07:40:12Z
2017-10-12T05:40:22Z,42.805,6.029,13.3031,4.60064,2472.002,2017-10-12T07:41:47Z
2017-10-12T05:41:57Z,42.805,6.029,13.3020,4.60069,2471.987,2017-10-12T07:43:21Z
2017-10-12T05:43:32Z,42.805,6.029,13.2972,4.60008,2471.979,2017-10-12T07:44:56Z
2017-10-12T05:45:07Z,42.805,6.029,13.3024,4.60032,2471.964,2017-10-12T07:46:31Z
2017-10-12T05:46:42Z,42.805,6.029,13.3041,4.60063,2472.002,2017-10-12T07:48:06Z
2017-10-12T05:48:16Z,42.805,6.029,13.3029,4.60007,2471.979,2017-10-12T07:49:41Z
2017-10-12T05:49:51Z,42.805,6.029,13.3004,4.60023,2471.957,2017-10-12T07:51:16Z
2017-10-12T05:51:26Z,42.805,6.029,13.3006,4.60009,2471.957,2017-10-12T07:52:50Z
2017-10-12T05:53:01Z,42.805,6.029,13.3006,4.60040,2471.957,2017-10-12T07:54:25Z
2017-10-12T05:54:36Z,42.805,6.029,13.3011,4.60023,2471.957,2017-10-12T07:56:00Z
2017-10-12T05:56:11Z,42.805,6.029,13.2992,4.60018,2471.957,2017-10-12T07:57:35Z
2017-10-12T05:57:45Z,42.805,6.029,13.2986,4.60009,2471.942,2017-10-12T07:59:10Z
2017-10-12T05:59:20Z,42.805,6.029,13.2970,4.60008,2471.987,2017-10-12T08:00:45Z
2017-10-12T06:00:55Z,42.805,6.029,13.2999,4.59992,2472.016,2017-10-12T08:02:19Z
2017-10-12T06:02:30Z,42.805,6.029,13.3015,4.60060,2471.964,2017-10-12T08:03:54Z
2017-10-12T06:04:05Z,42.805,6.029,13.2999,4.60030,2471.979,2017-10-12T08:05:29Z
2017-10-12T06:05:40Z,42.805,6.029,13.3015,4.60010,2471.979,2017-10-12T08:07:04Z
2017-10-12T06:07:14Z,42.805,6.029,13.3015,4.60011,2472.002,2017-10-12T08:08:39Z
2017-10-12T06:08:49Z,42.805,6.029,13.2964,4.59998,2471.979,2017-10-12T08:10:14Z
2017-10-12T06:10:24Z,42.805,6.029,13.2976,4.60012,2471.964,2017-10-12T08:11:48Z
2017-10-12T06:11:59Z,42.805,6.029,13.2993,4.60009,2471.979,2017-10-12T08:13:23Z
2017-10-12T06:13:34Z,42.805,6.029,13.3009,4.60000,2471.957,2017-10-12T08:14:58Z
2017-10-12T06:15:09Z,42.805,6.029,13.3002,4.60002,2471.979,2017-10-12T08:16:33Z
2017-10-12T06:16:43Z,42.805,6.029,13.3000,4.60010,2472.002,2017-10-12T08:18:08Z
2017-10-12T06:18:18Z,42.805,6.029,13.2997,4.60018,2471.979,2017-10-12T08:19:43Z
2017-10-12T06:19:53Z,42.805,6.029,13.3004,4.60034,2471.979,2017-10-12T08:21:17Z
2017-10-12T06:21:28Z,42.805,6.029,13.2999,4.60015,2471.942,2017-10-12T08:22:52Z
2017-10-12T06:23:03Z,42.805,6.029,13.2987,4.60003,2471.979,2017-10-12T08:24:27Z
2017-10-12T06:24:38Z,42.805,6.029,13.3008,4.59997,2471.957,2017-10-12T08:26:02Z
2017-10-12T06:26:12Z,42.805,6.029,13.3002,4.59990,2471.957,2017-10-12T08:27:37Z
2017-10-12T06:27:47Z,42.805,6.029,13.2988,4.59992,2472.002,2017-10-12T08:29:12Z
2017-10-12T06:29:22Z,42.805,6.029,13.2983,4.60009,2471.979,2017-10-12T08:30:46Z
2017-10-12T06:30:57Z,42.805,6.029,13.3015,4.60015,2472.002,2017-10-12T08:32:21Z
2017-10-12T06:32:32Z,42.805,6.029,13.2991,4.60003,2471.994,2017-10-12T08:33:56Z
2017-10-12T06:34:07Z,42.805,6.029,13.2975,4.60008,2471.964,2017-10-12T08:35:31Z
2017-10-12T06:35:41Z,42.805,6.029,13.2988,4.60008,2471.964,2017-10-12T08:37:06Z
2017-10-12T06:37:16Z,42.805,6.029,13.2940,4.60029,2471.979,2017-10-12T08:38:41Z
2017-10-12T06:38:51Z,42.805,6.029,13.2945,4.60009,2472.002,2017-10-12T08:40:15Z
2017-10-12T06:40:26Z,42.805,6.029,13.2986,4.60023,2471.979,2017-10-12T08:41:50Z
2017-10-12T06:42:01Z,42.805,6.029,13.3033,4.60026,2471.987,2017-10-12T08:43:25Z
2017-10-12T06:43:36Z,42.805,6.029,13.2998,4.60033,2471.957,2017-10-12T08:45:00Z
2017-10-12T06:45:10Z,42.805,6.029,13.3004,4.60007,2471.964,2017-10-12T08:46:35Z
2017-10-12T06:46:45Z,42.805,6.029,13.2988,4.60014,2471.964,2017-10-12T08:48:10Z
2017-10-12T06:48:20Z,42.805,6.029,13.2991,4.60033,2471.957,2017-10-12T08:49:44Z
2017-10-12T06:49:55Z,42.805,6.029,13.3015,4.60006,2472.002,2017-10-12T08:51:19Z
2017-10-12T06:51:30Z,42.805,6.029,13.2987,4.60029,2471.979,2017-10-12T08:52:54Z
2017-10-12T06:53:05Z,42.805,6.029,13.2987,4.59997,2472.002,2017-10-12T08:54:29Z
2017-10-12T06:54:39Z,42.805,6.029,13.2986,4.60002,2471.979,2017-10-12T08:56:04Z
2017-10-12T06:56:14Z,42.805,6.029,13.2988,4.60044,2471.979,2017-10-12T08:57:39Z
2017-10-12T06:57:49Z,42.805,6.029,13.2999,4.60020,2472.002,2017-10-12T08:59:13Z
2017-10-12T06:59:24Z,42.805,6.029,13.2970,4.60015,2471.979,2017-10-12T09:00:48Z
2017-10-12T07:00:59Z,42.805,6.029,13.3012,4.60021,2471.979,2017-10-12T09:02:23Z
2017-10-12T07:02:34Z,42.805,6.029,13.2995,4.60035,2472.002,2017-10-12T09:03:58Z
2017-10-12T07:04:08Z,42.805,6.029,13.2987,4.60029,2471.979,2017-10-12T09:05:33Z
2017-10-12T07:05:43Z,42.805,6.029,13.2993,4.60004,2472.002,2017-10-12T09:07:08Z
2017-10-12T07:07:18Z,42.805,6.029,13.2998,4.59992,2472.016,2017-10-12T09:08:43Z
2017-10-12T07:08:53Z,42.805,6.029,13.3017,4.60001,2472.002,2017-10-12T09:10:17Z
2017-10-12T07:10:28Z,42.805,6.029,13.2990,4.59998,2471.964,2017-10-12T09:11:52Z
2017-10-12T07:12:03Z,42.805,6.029,13.2986,4.60002,2472.002,2017-10-12T09:13:27Z
2017-10-12T07:13:37Z,42.805,6.029,13.2984,4.60001,2471.979,2017-10-12T09:15:02Z
2017-10-12T07:15:12Z,42.805,6.029,13.2995,4.59998,2471.979,2017-10-12T09:16:37Z
2017-10-12T07:16:47Z,42.805,6.029,13.2993,4.59997,2472.002,2017-10-12T09:18:12Z
2017-10-12T07:18:22Z,42.805,6.029,13.2985,4.60003,2471.979,2017-10-12T09:19:46Z
2017-10-12T07:19:57Z,42.805,6.029,13.2982,4.60000,2472.002,2017-10-12T09:21:21Z
2017-10-12T07:21:32Z,42.805,6.029,13.2987,4.59995,2472.002,2017-10-12T09:22:56Z
2017-10-12T07:23:06Z,42.805,6.029,13.2991,4.59985,2472.002,2017-10-12T09:24:31Z
2017-10-12T07:24:41Z,42.805,6.029,13.2984,4.59989,2472.024,2017-10-12T09:26:06Z
2017-10-12T07:26:16Z,42.805,6.029,13.2976,4.59989,2472.002,2017-10-12T09:27:41Z
2017-10-12T07:27:51Z,42.805,6.029,13.2979,4.59998,2471.979,2017-10-12T09:29:15Z
2017-10-12T07:29:26Z,42.805,6.029,13.2984,4.59992,2471.964,2017-10-12T09:30:50Z
2017-10-12T07:31:01Z,42.805,6.029,13.2987,4.59990,2471.979,2017-10-12T09:32:25Z
2017-10-12T07:32:36Z,42.805,6.029,13.2972,4.60001,2471.987,2017-10-12T09:34:00Z
2017-10-12T07:34:10Z,42.805,6.029,13.2979,4.59991,2471.979,2017-10-12T09:35:35Z
2017-10-12T07:35:45Z,42.805,6.029,13.2978,4.59990,2471.964,2017-10-12T09:37:10Z
2017-10-12T07:37:20Z,42.805,6.029,13.2999,4.59985,2471.987,2017-10-12T09:38:44Z
2017-10-12T07:38:55Z,42.805,6.029,13.2994,4.59995,2472.002,2017-10-12T09:40:19Z
2017-10-12T07:40:30Z,42.805,6.029,13.2981,4.59996,2472.002,2017-10-12T09:41:54Z
2017-10-12T07:42:05Z,42.805,6.029,13.2979,4.59991,2471.964,2017-10-12T09:43:29Z
2017-10-12T07:43:39Z,42.805,6.029,13.2973,4.59990,2472.002,2017-10-12T09:45:04Z
2017-10-12T07:45:14Z,42.805,6.029,13.2969,4.60001,2472.002,2017-10-12T09:46:39Z